BTI31B EETN-EVRA

Flight info

Callsign BTI31B
Flight time N/A
Altitude 20000
Route ORTAX DCT LUTAL
Aircraft A320/M-SDE3FGHIRWY/LB1

Departure

Time 2026-04-28 14:54
Airport Lennart Meri Tallinn Airport (EETN)

Arrival

Time N/A
Airport Riga International Airport (EVRA)
Time Latitude Longitude Altitude Speed Heading
2026-04-28 14:31 59.41739 24.80729 319 ft 0 kts
2026-04-28 14:43 59.41731 24.80729 162 ft 2 kts
2026-04-28 14:44 59.41713 24.80725 162 ft 2 kts
2026-04-28 14:44 59.41696 24.80722 162 ft 2 kts
2026-04-28 14:44 59.41679 24.80719 162 ft 3 kts 10°
2026-04-28 14:44 59.41663 24.80706 162 ft 3 kts 46°
2026-04-28 14:45 59.41659 24.80698 162 ft 0 kts 56°
2026-04-28 14:47 59.41664 24.80722 162 ft 6 kts 70°
2026-04-28 14:47 59.41665 24.80874 162 ft 16 kts 91°
2026-04-28 14:47 59.41665 24.81064 162 ft 18 kts 90°
2026-04-28 14:48 59.41628 24.81181 162 ft 13 kts 167°
2026-04-28 14:48 59.41534 24.81184 162 ft 14 kts 171°
2026-04-28 14:48 59.41505 24.81343 162 ft 15 kts 89°
2026-04-28 14:48 59.41505 24.81558 162 ft 17 kts 90°
2026-04-28 14:49 59.41504 24.81808 162 ft 20 kts 89°
2026-04-28 14:49 59.41505 24.82094 162 ft 22 kts 91°
2026-04-28 14:49 59.41503 24.82412 162 ft 24 kts 90°
2026-04-28 14:49 59.41502 24.82739 162 ft 27 kts 92°
2026-04-28 14:50 59.41500 24.83115 162 ft 29 kts 91°
2026-04-28 14:50 59.41499 24.83519 162 ft 30 kts 90°
2026-04-28 14:50 59.41498 24.83947 162 ft 32 kts 90°
2026-04-28 14:50 59.41499 24.84395 162 ft 33 kts 88°
2026-04-28 14:51 59.41498 24.84857 162 ft 34 kts 87°
2026-04-28 14:51 59.41495 24.85318 162 ft 34 kts 88°
2026-04-28 14:51 59.41494 24.85786 162 ft 35 kts 90°
2026-04-28 14:51 59.41493 24.86270 162 ft 36 kts 89°
2026-04-28 14:52 59.41491 24.86622 162 ft 14 kts 94°
2026-04-28 14:52 59.41423 24.86708 162 ft 14 kts 182°
2026-04-28 14:52 59.41363 24.86705 162 ft 15 kts 182°
2026-04-28 14:52 59.41314 24.86653 162 ft 9 kts 273°
2026-04-28 14:53 59.41317 24.86570 160 ft 0 kts 268°
2026-04-28 14:53 59.41317 24.86405 160 ft 37 kts 270°
2026-04-28 14:53 59.41321 24.85461 164 ft 98 kts 271°
2026-04-28 14:54 59.41324 24.83792 164 ft 144 kts 271°
2026-04-28 14:54 59.41339 24.81989 313 ft 152 kts 274°
2026-04-28 14:54 59.41292 24.80083 914 ft 146 kts 275°
2026-04-28 14:54 59.41292 24.78130 1263 ft 149 kts 276°
2026-04-28 14:55 59.41105 24.76313 597 ft 145 kts 248°
2026-04-28 14:55 59.40991 24.75808 176 ft 0 kts 287°